ビショア彗星

C/2009 K3 ( Beshore )

English version
Home page
Updated on June 20, 2009

---------------------------------------------------------------------

・ プロフィール

発見日 2009年5月26日
発見光度 20.5等
発見者 E. Beshore (Mount Lemmon)

・ 軌道要素

T 2011 Jan.  9.266 TT                                   MPC
q   3.90156              (2000.0)            P               Q
                   Peri.  251.413       -0.319181       +0.947694
                   Node     0.032       +0.933621       +0.314496
e   1.0            Incl.  146.680       -0.162711       -0.054484
From 20 observations 2009 May 26-28.

・ 星図

・ 光度変化

        m1 = 8.5 + 5 logΔ + 10.0 log r

---------------------------------------------------------------------

軌道要素はM.P.E.C. 2009-K62に掲載されたものです。
星図はステラナビゲータ Ver.8 (アストロアーツ) で作成したものです。
光度グラフはComet for Windowsで作成したものです。

---------------------------------------------------------------------

Copyright(C) Seiichi Yoshida (comet@aerith.net). All rights reserved.